Location: Unspecified
(43.4680°N, 87.1740°E)
Time: 07:17:11
(UTC+00:00)

NOSS 0 Rocket - Pass Details

Date: 01 August 2021
Orbit: 936 x 954 km, 70.0° (Epoch: 18 September)

Event Time Altitude Azimuth Distance (km) Brightness Sun altitude
Rises 15:10:55 0° 342° (NNW) 3,638 8.2 -15.3°
Reaches altitude 10° 15:14:48 10° 5° (N) 2,687 6.9 -15.8°
Maximum altitude 15:18:12 15° 39° (NE) 2,345 6.1 -16.2°
Drops below altitude 10° 15:21:34 10° 72° (ENE) 2,675 6.1 -16.6°
Enters shadow 15:22:59 - 82° (E) 2,974 6.2 -16.8°
